Regional Weather Roundup
Issued by NWS

Home | Current Version | Previous Version | Graphics & Text | Print | Product List | Glossary On
Versions: 1 2 3 4 5 6 7 8 9 10 11 12 13 14 15 16 17 18 19 20 21 22 23 24 25 26 27 28 29 30 31 32 33 34 35 36 37 38 39 40 41 42 43 44 45 46 47 48 49 50
000
ASUS43 KIND 191709
RWRIN

WEATHER ROUNDUP FOR INDIANA
NATIONAL WEATHER SERVICE INDIANAPOLIS IN
100 PM EDT SUN APR 19 2015

NOTE: "FAIR" INDICATES FEW OR NO CLOUDS BELOW 12,000 FEET WITH NO
SIGNIFICANT WEATHER AND/OR OBSTRUCTIONS TO VISIBILITY.

* - STATION DOES NOT REPORT WEATHER SUCH AS PRECIPITATION OR FOG.

+ - STATION NOT QUALITY CONTROLLED BY THE NATIONAL WEATHER SERVICE.
    USE DATA WITH CAUTION...ESPECIALLY DEWPOINT AND RELATIVE
    HUMIDITY OBSERVATIONS.

INZ001>003-010>013-019-020-191800-
NORTHWEST INDIANA

CITY           SKY/WX    TMP DP  RH WIND       PRES   REMARKS
GARY /AIRPORT/ PTSUNNY   73  27  17 SE22      29.70F
KNOX *+        PTSUNNY   68   7   9 SE15G22   29.71F
LA PORTE +     PTSUNNY   72  38  29 E20       29.73F
MICHIGAN CITY+ PTSUNNY   70  30  23 E14G21    29.72F
MONTICELLO +   LGT RAIN  60  45  57 E9        29.70F
RENSSELAER +   CLOUDY    64  43  45 SE15      29.71F
VALPARAISO     PTSUNNY   70  39  32 SE17G24   29.72F

$$

LMZ046-743>745-191800-
SOUTHERN LAKE MICHIGAN

STATION/POSITION TIME  TEMP WIND        PRES
                       AIR  DIR/SP/G
                 (UTC) (F)  (DEG/KT/KT) (MB)
BURNS HARBOR     1700   70  110/ 16/ 24 1006.8S
MICHIGAN CITY    1700   68   90/ 16/ 20   N/A
4NW MICH CITY    1700   60  130/ 14/ 19   N/A

$$

INZ004-005-014>016-021>024-191800-
NORTH CENTRAL INDIANA

CITY           SKY/WX    TMP DP  RH WIND       PRES   REMARKS
ELKHART        PTSUNNY   68  32  26 E16G28    29.75F
GOSHEN         PTSUNNY   65  42  43 E17       29.75F
LOGANSPORT +   RAIN      59  46  63 E14       29.72F
PERU/GRISSOM   LGT RAIN  60  47  63 E12       29.71F
ROCHESTER +    CLOUDY    64  41  42 SE17      29.73F
SOUTH BEND     PTSUNNY   70  35  27 SE24      29.74F
WARSAW +       CLOUDY    64  41  42 E13       29.75F

$$

INZ006>009-017-018-025>027-191800-
NORTHEAST INDIANA

CITY           SKY/WX    TMP DP  RH WIND       PRES   REMARKS
ANGOLA *+      SUNNY     63  37  39 SE17      29.79F
AUBURN +       PTSUNNY   64  37  36 E12       29.79F
FORT WAYNE     CLOUDY    63  43  48 E16       29.76F
HUNTINGTON +   CLOUDY    62  37  40 E12G18    29.75F

$$

INZ028-029-035-036-043>045-051>053-191800-
WEST CENTRAL INDIANA

CITY           SKY/WX    TMP DP  RH WIND       PRES   REMARKS
CRAWFORDSVL +  RAIN      54  48  80 NE12      29.66F
GREENCASTLE +  RAIN      54  50  87 E12       29.65F
LAFAYETTE      LGT RAIN  56  49  77 E13       29.69F
TERRE HAUTE    LGT RAIN  58  57  97 E10       29.62F FOG

$$

INZ030>032-037>040-046>048-054>057-064-065-191800-
CENTRAL INDIANA

CITY           SKY/WX    TMP DP  RH WIND       PRES   REMARKS
CP ATTERBURY + RAIN      55  55 100 E6        29.67F
FISHERS *+     CLOUDY    54  54 100 E7        29.68F VSB 1
FRANKFORT +    LGT RAIN  55  51  83 NE12      29.72F
GREENWOOD *+   CLOUDY    55  54  94 E12       29.68F
INDIANAPOLIS   LGT RAIN  56  53  90 E13       29.65F FOG
-EAGLE CREEK   RAIN      55  53  93 E7        29.67F FOG
KOKOMO *+      CLOUDY    57  48  72 E13       29.72F
MARION +       LGT RAIN  56  47  72 E10       29.73F
MT COMFORT *+  CLOUDY    55 N/A N/A E14       29.69F
SHELBYVILLE    LGT RAIN  59  55  87 E16       29.67F FOG
ZIONSVILLE +   RAIN      56  51  82 E9        29.69F

$$

INZ033-034-041-042-049-050-058-059-191800-
EAST CENTRAL INDIANA

CITY           SKY/WX    TMP DP  RH WIND       PRES   REMARKS
MUNCIE         LGT RAIN  59  53  80 E12       29.72F

$$

INZ060-061-067>069-081>083-085>088-191800-
SOUTHWEST INDIANA

CITY           SKY/WX    TMP DP  RH WIND       PRES   REMARKS
EVANSVILLE     LGT RAIN  64  62  93 E3        29.59F FOG
HUNTINGBURG *+ CLOUDY    64  61  88 E6        29.60F
WASHINGTON +   RAIN      60  57  87 E10G16    29.59F

$$

INZ062-063-066-070>080-084-089>092-191800-
SOUTH CENTRAL AND SOUTHEAST INDIANA

CITY           SKY/WX    TMP DP  RH WIND       PRES   REMARKS
BLOOMINGTON    RAIN      58  57  97 SE9       29.64F FOG
MADISON *+     CLOUDY    61  59  94 E9        29.67F
NORTH VERNON + CLOUDY    63  63 100 E8        29.66F

$$



USA.gov is the U.S. government's official web portal to all federal, state and local government web resources and services.